TimeMDT,TemperatureF,Dew PointF,Humidity,Sea Level PressureIn,VisibilityMPH,Wind Direction,Wind SpeedMPH,Gust SpeedMPH,PrecipitationIn,Events,Conditions,WindDirDegrees,DateUTC
12:53 AM,25.0,18.0,75,30.41,10.0,NW,3.5,-,N/A,,Clear,310,2013-05-03 06:53:00
1:53 AM,25.0,17.1,72,30.39,10.0,Calm,Calm,-,N/A,,Clear,0,2013-05-03 07:53:00
2:53 AM,24.1,17.1,75,30.37,10.0,Calm,Calm,-,N/A,,Clear,0,2013-05-03 08:53:00
3:53 AM,24.1,17.1,75,30.37,10.0,WNW,3.5,-,N/A,,Clear,300,2013-05-03 09:53:00
4:53 AM,24.1,17.1,75,30.34,10.0,WNW,3.5,-,N/A,,Clear,300,2013-05-03 10:53:00
5:53 AM,25.0,17.1,72,30.32,10.0,Calm,Calm,-,N/A,,Clear,0,2013-05-03 11:53:00
6:53 AM,30.0,19.9,66,30.31,10.0,WNW,3.5,-,N/A,,Clear,290,2013-05-03 12:53:00
7:53 AM,39.0,18.0,43,30.26,10.0,West,5.8,-,N/A,,Clear,270,2013-05-03 13:53:00
8:53 AM,44.1,17.1,34,30.25,10.0,Calm,Calm,-,N/A,,Clear,0,2013-05-03 14:53:00
9:53 AM,46.0,15.1,29,30.24,10.0,Variable,6.9,-,N/A,,Clear,0,2013-05-03 15:53:00
10:53 AM,50.0,15.1,25,30.22,10.0,ENE,10.4,-,N/A,,Clear,60,2013-05-03 16:53:00
11:53 AM,52.0,16.0,24,30.19,10.0,Variable,4.6,-,N/A,,Clear,0,2013-05-03 17:53:00
12:53 PM,51.1,19.0,28,30.19,10.0,ESE,11.5,18.4,N/A,,Clear,120,2013-05-03 18:53:00
1:53 PM,51.1,19.0,28,30.18,10.0,East,11.5,17.3,N/A,,Clear,90,2013-05-03 19:53:00
2:53 PM,52.0,19.9,28,30.17,10.0,ESE,10.4,17.3,N/A,,Scattered Clouds,120,2013-05-03 20:53:00
3:53 PM,52.0,19.9,28,30.15,10.0,East,11.5,16.1,N/A,,Mostly Cloudy,100,2013-05-03 21:53:00
4:53 PM,50.0,21.0,32,30.15,10.0,East,10.4,-,N/A,,Overcast,90,2013-05-03 22:53:00
5:53 PM,50.0,21.0,32,30.15,10.0,East,10.4,-,N/A,,Clear,90,2013-05-03 23:53:00
6:53 PM,46.0,19.9,35,30.15,10.0,East,9.2,-,N/A,,Clear,80,2013-05-04 00:53:00
7:53 PM,42.1,19.0,40,30.14,10.0,East,8.1,-,N/A,,Clear,80,2013-05-04 01:53:00
8:53 PM,37.9,19.0,47,30.16,10.0,ENE,6.9,-,N/A,,Clear,70,2013-05-04 02:53:00
9:53 PM,36.0,18.0,48,30.17,10.0,ENE,4.6,-,N/A,,Clear,60,2013-05-04 03:53:00
10:53 PM,34.0,16.0,48,30.17,10.0,ENE,6.9,-,N/A,,Clear,70,2013-05-04 04:53:00
11:53 PM,32.0,15.1,50,30.17,10.0,NNE,3.5,-,N/A,,Clear,20,2013-05-04 05:53:00